Regional Weather Roundup
Issued by NWS

Home | Current Version | Previous Version | Graphics & Text | Print | Product List | Glossary On
Versions: 1 2 3 4 5 6 7 8 9 10 11 12 13 14 15 16 17 18 19 20 21 22 23 24 25 26 27 28 29 30 31 32 33 34 35 36 37 38 39 40 41 42 43 44 45 46 47 48 49 50
000
ASUS43 KLOT 250602
RWRIL

ILLINOIS REGIONAL WEATHER ROUNDUP
NATIONAL WEATHER SERVICE CHICAGO/ROMEOVILLE IL
100 AM CDT MON MAY 25 2015

NOTE: "FAIR" INDICATES FEW OR NO CLOUDS BELOW 12,000 FEET WITH NO
SIGNIFICANT WEATHER AND/OR OBSTRUCTIONS TO VISIBILITY.

* THESE STATIONS ARE NOT UNDER NWS QUALITY CONTROL. THEY ALSO MAY NOT
  REPORT WEATHER SUCH AS PRECIPITATION OR FOG.

ILZ001-002-007-009-015-016-024-250700-
NORTHWEST ILLINOIS

CITY           SKY/WX    TMP DP  RH WIND       PRES   REMARKS
MOLINE         CLOUDY    68  64  87 SE7       29.81F
6HR MIN TEMP:  68; 6HR MAX TEMP:  72; 6HR PCP:  0.01;

STERLING*      CLOUDY    66  64  94 SW5       29.85F
$$

ILZ003-004-008-010-011-017-018-250700-
NORTH CENTRAL ILLINOIS

CITY           SKY/WX    TMP DP  RH WIND       PRES   REMARKS
ROCKFORD       LGT RAIN  68  65  90 S15       29.88F FOG
6HR MIN TEMP:  65; 6HR MAX TEMP:  69; 6HR PCP:  0.58;

$$

ILZ005-006-012>014-019>023-250700-
NORTHEAST ILLINOIS

CITY           SKY/WX    TMP DP  RH WIND       PRES   REMARKS
CHICAGO-OHARE  MOCLDY    70  62  76 S12G20    29.89F
6HR MIN TEMP:  63; 6HR MAX TEMP:  70; 6HR PCP: TRACE;

CHICAGO-MIDWAY CLOUDY    76  63  64 S16G24    29.90F
6HR MIN TEMP:  65; 6HR MAX TEMP:  76; 6HR PCP:  0.01;

AURORA         MOCLDY    73  61  65 S16       29.88F
6HR MIN TEMP:  70; 6HR MAX TEMP:  74;

WAUKEGAN       NOT AVBL
DUPAGE AIRPORT MOCLDY    72  62  71 S17G23    29.88F
6HR MIN TEMP:  66; 6HR MAX TEMP:  72; 6HR PCP: TRACE;

WHEELING       MOCLDY    68  62  81 S10       29.90F
6HR MIN TEMP:  61; 6HR MAX TEMP:  68; 6HR PCP: TRACE;

NORTHERLY ISL    N/A     74  60  61 S14         N/A
$$

LMZ740>746-250700-
SOUTHERN LAKE MICHIGAN

STATION/POSITION SKY/WX   TEMP    WIND        PRES    VSBY  WAVE
                          AIR SEA DIR/SP/G                  HT/PER
                          (F)     (DEG/KT/KT) (MB)    (MI)  (FT/S)
SOUTHERN BUOY              47 38  170/ 10/ 12 1013.3F         1
HARRISON CRIB              71     180/ 21/ 24   N/A
BURNHAM HARBOR             74     180/ 15/ 18   N/A
CALUMET HARBOR             75     170/ 12/ 15   N/A
BURNS HARBOR               75     180/ 12/ 20 1014.6F
MICHIGAN CITY              75     150/ 13/ 17   N/A
MICHIGAN CITY 6N           69 54  190/ 14/ 17   N/A           1/ 2
ST. JOSEPH                 67 54  200/ 12/ 14   N/A           1/ 2
$$

ILZ025>027-034>036-040-047-049-050-058-095>099-250700-
WEST-CENTRAL ILLINOIS

CITY           SKY/WX    TMP DP  RH WIND       PRES   REMARKS
QUINCY         CLOUDY    69  65  86 S12G22    29.79S
$$

ILZ028>032-037-038-041>044-048-051>054-059>061-250700-
CENTRAL ILLINOIS

CITY           SKY/WX    TMP DP  RH WIND       PRES   REMARKS
DECATUR        CLOUDY    67  64  90 S9        29.93F
PEORIA         LGT RAIN  70  66  87 SE8       29.86F
6HR MIN TEMP:  70; 6HR MAX TEMP:  81; 6HR PCP:  0.06;

SPRINGFIELD    CLOUDY    69  67  93 S15       29.88F
6HR MIN TEMP:  69; 6HR MAX TEMP:  80; 6HR PCP:  0.21;

TAYLORVILLE    NOT AVBL
$$

ILZ033-039-045-046-055>057-062-063-250700-
EAST-CENTRAL ILLINOIS

CITY           SKY/WX    TMP DP  RH WIND       PRES   REMARKS
CHAMPAIGN      LGT RAIN  70  63  78 S18       29.95S
MATTOON        CLOUDY    68  65  90 S6        29.96F
$$

ILZ079-100>102-250700-
SOUTHWEST ILLINOIS

CITY           SKY/WX    TMP DP  RH WIND       PRES   REMARKS
BELLEVILLE     CLOUDY    68  68 100 S13       29.90S
CAHOKIA*       LGT RAIN  70  65  84 S13G23    29.89F
$$

ILZ064>066-069>071-074>076-080>082-084>086-088>090-092>094-250700-
SOUTH-CENTRAL ILLINOIS

CITY           SKY/WX    TMP DP  RH WIND       PRES   REMARKS
CARBONDALE     CLOUDY    69  66  90 S13       29.96F
6HR MIN TEMP:  67; 6HR MAX TEMP:  81; 6HR PCP:  0.46;

MT. VERNON     CLOUDY    70  64  83 S10       29.97F
$$

ILZ067-068-072-073-078-083-087-091-250700-
SOUTHEAST ILLINOIS

CITY           SKY/WX    TMP DP  RH WIND       PRES   REMARKS
LAWRENCEVILLE  CLOUDY    75  64  68 S17G28    30.01R
$$

ABBREVIATIONS USED IN REMARKS
   TC - TEMPERATURE IN CELSIUS
  WCI - WIND CHILL INDEX
   HX - HEAT INDEX
  VSB - VISIBILITY
$$



USA.gov is the U.S. government's official web portal to all federal, state and local government web resources and services.